Location: Heiligenberg
(48.5381°N, 7.3897°E)
Time: 01:58:26
(UTC+00:00)

USA 305 - Pass Details

Date: 26 May 2022
Orbit: 549 x 553 km, 54.0° (Epoch: 14 June)

Event Time Altitude Azimuth Distance (km) Brightness Sun altitude
Exits shadow 01:02:59 31° 239° (WSW) 969 3.6 -17.2°
Maximum altitude 01:04:53 88° 152° (SSE) 556 2.7 -17.0°
Drops below altitude 10° 01:09:02 10° 62° (ENE) 1,828 6.2 -16.8°
Sets 01:11:16 0° 62° (ENE) 2,724 7.3 -16.6°
